Weather History for Hatteras, NC

Change the Weather History Date:

Saturday, January 19, 2013

  Actual Average Record
Temperature  
Mean Temperature 47 °F 45 °F  
Max Temperature 53 °F 52 °F 74 °F (1987)
Min Temperature 41 °F 39 °F 17 °F (1994)
Degree Days  
Heating Degree Days 18 20  
Month to date heating degree days 255 373  
Since 1 July heating degree days 1034 1180  
Cooling Degree Days 0 0  
Month to date cooling degree days 0 0  
Year to date cooling degree days 0 0  
Moisture  
Dew Point 39 °F    
Average Humidity 80    
Maximum Humidity 93    
Minimum Humidity 66    
Precipitation  
Precipitation 0.00 in 0.17 in 2.77 in (1986)
Month to date precipitation 1.54 3.23  
Year to date precipitation 1.54 3.23  
Snow  
Snow 0.00 in - - ()
Month to date snowfall 0.0  
Since 1 July snowfall 0.0  
Snow Depth 0.00 in    
Sea Level Pressure  
Sea Level Pressure 30.37 in    
Wind  
Wind Speed 5 mph (North)    
Max Wind Speed 12 mph    
Max Gust Speed 20 mph    
Visibility 10 miles    
Events      
T = Trace of Precipitation, MM = Missing Value Source: NWS Daily Summary

Daily Weather History Graph

Daily Weather History Graph

Search for Another Location

Airport:

Trip Planner

Search our weather history database for the weather conditions in past years. The results will help you decide how hot, cold, wet, or windy it might be!

Date:

Astronomy

Jan. 19, 2013 Rise Set
Actual Time 7:09 AM EST 5:17 PM EST
Civil Twilight 6:41 AM EST 5:45 PM EST
Nautical Twilight 6:10 AM EST 6:16 PM EST
Astronomical Twilight 5:40 AM EST 6:46 PM EST
Moon 11:40 AM EST (1/19) 12:44 AM EST (1/19)
Length of Visible Light 11h 03m
Length of Day
10h 08m
First Quarter, 57% of the Moon is Illuminated
Jan 19
First Quarter
Jan 26
Full
Feb 3
Last Quarter
Feb 10
New
Feb 17
First Quarter

Hourly Weather History & Observations

Time (EST) Temp. Windchill Dew Point Humidity Pressure Visibility Wind Dir Wind Speed Gust Speed Precip Events Conditions
12:51 AM 41.0 °F 34.7 °F 33.1 °F 73% 30.47 in 10.0 mi NNE 10.4 mph 16.1 mph N/A   Clear
1:51 AM 42.1 °F 36.6 °F 33.1 °F 70% 30.48 in 10.0 mi NNE 9.2 mph - N/A   Clear
2:51 AM 42.1 °F 36.6 °F 34.0 °F 73% 30.47 in 10.0 mi NNE 9.2 mph - N/A   Clear
3:51 AM 42.1 °F 36.1 °F 35.1 °F 76% 30.45 in 10.0 mi NNE 10.4 mph 18.4 mph N/A   Clear
4:51 AM 43.0 °F 38.2 °F 35.1 °F 74% 30.45 in 10.0 mi NNE 8.1 mph 16.1 mph N/A   Clear
5:51 AM 43.0 °F 38.2 °F 36.0 °F 76% 30.45 in 10.0 mi NNE 8.1 mph 16.1 mph N/A   Clear
6:51 AM 43.0 °F 38.8 °F 37.0 °F 80% 30.46 in 10.0 mi NNE 6.9 mph - N/A   Scattered Clouds
7:51 AM 44.1 °F 39.0 °F 37.0 °F 76% 30.46 in 10.0 mi NNE 9.2 mph 16.1 mph N/A   Partly Cloudy
8:51 AM 46.0 °F 41.9 °F 37.9 °F 73% 30.47 in 10.0 mi NNE 8.1 mph - N/A   Clear
9:51 AM 48.9 °F - 39.9 °F 71% 30.47 in 10.0 mi NNE 8.1 mph - N/A   Clear
10:51 AM 50.0 °F - 39.9 °F 68% 30.45 in 10.0 mi Variable 6.9 mph - N/A   Clear
11:51 AM 50.0 °F - 41.0 °F 71% 30.41 in 10.0 mi Variable 4.6 mph - N/A   Mostly Cloudy
12:51 PM 51.1 °F - 41.0 °F 68% 30.37 in 10.0 mi Variable 4.6 mph - N/A   Partly Cloudy
1:51 PM 53.1 °F - 42.1 °F 66% 30.33 in 10.0 mi Variable 3.5 mph - N/A   Clear
2:51 PM 53.1 °F - 42.1 °F 66% 30.31 in 10.0 mi NNW 3.5 mph - N/A   Clear
3:51 PM 52.0 °F - 41.0 °F 66% 30.30 in 10.0 mi Calm Calm - N/A   Clear
4:51 PM 51.1 °F - 42.1 °F 71% 30.28 in 10.0 mi Calm Calm - N/A   Clear
5:51 PM 43.0 °F - 39.9 °F 89% 30.27 in 10.0 mi Calm Calm - N/A   Clear
6:51 PM 41.0 °F - 39.0 °F 93% 30.27 in 9.0 mi Calm Calm - N/A   Clear
7:51 PM 44.1 °F - 41.0 °F 89% 30.27 in 9.0 mi Calm Calm - N/A   Mostly Cloudy
8:51 PM 45.0 °F - 43.0 °F 93% 30.25 in 10.0 mi Calm Calm - N/A   Mostly Cloudy
9:51 PM 44.1 °F 41.5 °F 42.1 °F 93% 30.23 in 10.0 mi West 4.6 mph - N/A   Scattered Clouds
10:51 PM 48.0 °F - 45.0 °F 89% 30.22 in 9.0 mi SW 3.5 mph - N/A   Mostly Cloudy
11:51 PM 50.0 °F - 46.0 °F 86% 30.19 in 10.0 mi West 3.5 mph - N/A   Overcast